Regional Weather Roundup
Issued by NWS

Home | Current Version | Previous Version | Graphics & Text | Print | Product List | Glossary Off
Versions: 1 2 3 4 5 6 7 8 9 10 11 12 13 14 15 16 17 18 19 20 21 22 23 24 25 26 27 28 29 30 31 32 33 34 35 36 37 38 39 40 41 42 43 44 45 46 47 48 49 50

000
ASUS43 KLOT 271710
RWRIL

ILLINOIS REGIONAL WEATHER ROUNDUP
NATIONAL WEATHER SERVICE CHICAGO/ROMEOVILLE IL
1100 AM CST THU NOV 27 2014

NOTE: "FAIR" INDICATES FEW OR NO CLOUDS BELOW 12,000 FEET WITH NO
SIGNIFICANT WEATHER AND/OR OBSTRUCTIONS TO VISIBILITY.

* THESE STATIONS ARE NOT UNDER NWS QUALITY CONTROL. THEY ALSO MAY NOT
  REPORT WEATHER SUCH AS PRECIPITATION OR FOG.

ILZ001-002-007-009-015-016-024-271800-
NORTHWEST ILLINOIS

CITY           SKY/WX    TMP DP  RH WIND       PRES   REMARKS
MOLINE         PTSUNNY   21  13  71 W15       30.45R WCI   8
STERLING*      CLOUDY    27  16  63 NW12      30.40R WCI  16
SAVANNA*       CLOUDY    26  16  67 NW10      30.41S WCI  16
$$

ILZ003-004-008-010-011-017-018-271800-
NORTH CENTRAL ILLINOIS

CITY           SKY/WX    TMP DP  RH WIND       PRES   REMARKS
ROCKFORD       FLURRIES  24  16  71 N9        30.39R WCI  14
FREEPORT*      LGT SNOW  21  16  80 NW12      30.40R WCI   9
ROCHELLE*      CLOUDY    24  17  74 N10       30.38S WCI  14
DE KALB*       FLURRIES  23  18  80 NW14      30.35S WCI  10
PERU*          LGT SNOW  26  22  83 NW15      30.40R WCI  14
$$

ILZ005-006-012>014-019>023-271800-
NORTHEAST ILLINOIS

CITY           SKY/WX    TMP DP  RH WIND       PRES   REMARKS
CHICAGO-OHARE  PTSUNNY   25  16  68 NW16      30.33R WCI  12
CHICAGO-MIDWAY PTSUNNY   29  18  63 NW14      30.33S WCI  18
AURORA         CLOUDY    26  17  68 NW13      30.36R WCI  15
LANSING*       CLOUDY    28  20  71 NW10G18   30.33S WCI  18
JOLIET*        CLOUDY    26  18  69 NW8G16    30.36S WCI  18
WAUKEGAN       CLOUDY    23  16  74 NW7G16    30.33R WCI  15
DUPAGE AIRPORT CLOUDY    25  18  74 NW13      30.34R WCI  14
KANKAKEE*      CLOUDY   N/A N/A N/A W14       30.36S
WHEELING       CLOUDY    25  16  68 NW15      30.35R WCI  13
MORRIS*        CLOUDY    28  22  80 NW15      30.36S WCI  16
ROMEOVILLE*    CLOUDY    26  19  73 NW10      30.34F WCI  16
NORTHERLY ISL    N/A     28  19  69 NW10        N/A  WCI  19
$$

LMZ740>746-271800-
SOUTHERN LAKE MICHIGAN

STATION/POSITION SKY/WX   TEMP    WIND        PRES    VSBY  WAVE
                          AIR SEA DIR/SP/G                  HT/PER
                          (F)     (DEG/KT/KT) (MB)    (MI)  (FT/S)
SOUTHERN BUOY              30 42  300/ 19/ 25 1025.9R         5/ 6
WAUKEGAN HARBOR            22     310/ 13/ 20   N/A
HARRISON CRIB              26     300/ 16/ 19   N/A
BURNHAM HARBOR             27     300/ 11/ 14   N/A
CALUMET HARBOR             27     280/  8/ 17 1025.7R
MICHIGAN CITY              29     270/ 22/ 24   N/A
$$

ILZ025>027-034>036-040-047-049-050-058-095>099-271800-
WEST-CENTRAL ILLINOIS

CITY           SKY/WX    TMP DP  RH WIND       PRES   REMARKS
QUINCY         PTSUNNY   25  17  72 NW13      30.49R WCI  14
GALESBURG*     MOSUNNY   21  17  83 W15G22    30.44S WCI   8
MACOMB*        SUNNY     21  16  83 NW12      30.49R WCI   9
JACKSONVILLE*  FLURRIES  28  20  72 W12G18    30.46S WCI  18
PITTSFIELD*    CLOUDY    27  19  72 NW8       30.49S WCI  19
$$

ILZ028>032-037-038-041>044-048-051>054-059>061-271800-
CENTRAL ILLINOIS

CITY           SKY/WX    TMP DP  RH WIND       PRES   REMARKS
PONTIAC        FLURRIES  29  23  79 NW15      30.39S WCI  18
BLOOMINGTON    LGT SNOW  27  22  81 NW14      30.40S WCI  16
DECATUR        LGT SNOW  28  22  78 W14       30.42S WCI  17
PEORIA         CLOUDY    26  18  71 NW12G22   30.43R HAZE    WCI  16
LACON*         CLOUDY    26  19  76 NW15G21   30.41S WCI  14
LINCOLN*       LGT SNOW  29  24  82 W8G20     30.44S WCI  21
SPRINGFIELD    LGT SNOW  27  22  81 W16       30.45S WCI  15
TAYLORVILLE    FLURRIES  28  21  74 W10       30.45S WCI  19
$$

ILZ033-039-045-046-055>057-062-063-271800-
EAST-CENTRAL ILLINOIS

CITY           SKY/WX    TMP DP  RH WIND       PRES   REMARKS
CHAMPAIGN      CLOUDY    28  21  75 NW20      30.39S WCI  15
DANVILLE*      CLOUDY    27  22  82 NW14      30.35S WCI  15
RANTOUL*       LGT SNOW  30  24  78 NW14      30.38S WCI  19
MATTOON        CLOUDY    27  21  78 NW15G21   30.41S WCI  15
PARIS*         CLOUDY    28  24  82 NW17      30.40S WCI  16
$$

ILZ079-100>102-271800-
SOUTHWEST ILLINOIS

CITY           SKY/WX    TMP DP  RH WIND       PRES   REMARKS
ALTON          CLOUDY    30  23  74 NW9       30.48S WCI  22
BELLEVILLE     CLOUDY    32  28  86 NW6       30.48S WCI  26
CAHOKIA*       CLOUDY    32  23  69 NW14G20   30.49S WCI  22
SPARTA*        CLOUDY    31  26  82 NW7       30.49F WCI  24
$$

ILZ064>066-069>071-074>076-080>082-084>086-088>090-092>094-271800-
SOUTH-CENTRAL ILLINOIS

CITY           SKY/WX    TMP DP  RH WIND       PRES   REMARKS
CARBONDALE     CLOUDY    30  25  81 NW6       30.50S WCI  24
CAIRO*         CLOUDY    34  27  74 N10       30.51S WCI  26
EFFINGHAM*     CLOUDY    29  19  66 NW16G22   30.44S WCI  17
MARION         CLOUDY    30  27  86 N12       30.49F HAZE    WCI  21
MT. VERNON     CLOUDY    28  21  74 CALM      30.47F
CENTRALIA*     CLOUDY    29  25  83 NW6       30.46F FOG     WCI  23
SALEM*           N/A     30  26  83 W7        30.46F HAZE    WCI  23
METROPOLIS*    CLOUDY    33  25  75 N10         N/A  WCI  24
$$

ILZ067-068-072-073-078-083-087-091-271800-
SOUTHEAST ILLINOIS

CITY           SKY/WX    TMP DP  RH WIND       PRES   REMARKS
LAWRENCEVILLE  CLOUDY    28  22  78 NW21      30.44R HAZE    WCI  15
FLORA*         MOSUNNY   29  24  81 W14       30.46F WCI  18
FAIRFIELD*     CLOUDY    30  25  81 NW3       30.46F
HARRISBURG*    CLOUDY    30  26  84 NW10      30.49F FOG     WCI  21
ROBINSON*      CLOUDY    28  23  81 NW13      30.44S WCI  18
CARMI*         MOSUNNY   32  28  84 W14G21    30.47S WCI  22
$$

ABBREVIATIONS USED IN REMARKS
   TC - TEMPERATURE IN CELSIUS
  WCI - WIND CHILL INDEX
   HX - HEAT INDEX
  VSB - VISIBILITY
$$



USA.gov is the U.S. government's official web portal to all federal, state and local government web resources and services.